カタログに戻る

CZ-6A DEB

運用中PO
NORAD 60697·DEBRIS·🇨🇳 China

打ち上げ Aug 6, 2024 から Taiyuan Satellite Launch Center

Loading…

次のパス (今後24時間)

TLE

最新Source: Space-Track

元期: Sep 14, 2026, 10:43 UTC

1 60697U 24140DA  26257.44658045  .00000264  00000-0  12517-3 0  9998
2 60697  89.0221 267.6120 0059374 270.3576  89.0809 14.16007853108204

AllMySatでCZ-6A DEBをリアルタイム追跡

Download on the App Store